Location: Gro� Glienicke
(52.4675°N, 13.1079°E)
Time: 02:55:03
(UTC+00:00)

Resurs 1-4 Rocket - Pass Details

Date: 06 July 2020
Orbit: 800 x 814 km, 98.6° (Epoch: 04 August)

Event Time Altitude Azimuth Distance (km) Brightness Sun altitude
Rises 23:13:07 0° 28° (NNE) 3,352 6.5 -15.0°
Reaches altitude 10° 23:16:43 10° 53° (NE) 2,412 5.1 -15.0°
Maximum altitude 23:19:29 14° 85° (E) 2,128 4.4 -15.0°
Drops below altitude 10° 23:22:13 10° 116° (ESE) 2,400 4.3 -14.9°
Enters shadow 23:23:48 - 129° (SE) 2,759 4.5 -14.9°
